Location: Columbia
(38.9520°N, 92.3340°W)
Time: 14:41:43
(UTC-06:00)

Daily predictions for brighter satellites

Satellite Brightness Start Highest point End
(mag) Time Altitude Azimuth Time Altitude Azimuth Time Altitude Azimuth
Cosmos 2142 Rocket 4.5 17:05:21 10° S 17:11:31 74° E 17:17:39 10° N
MSX 4.1 17:07:00 10° S 17:12:46 79° WSW 17:18:33 10° NNW
Cosmos 1484 Rocket 3.2 17:10:54 10° SE 17:14:42 44° ENE 17:18:33 10° N
Cosmos 1607 4.0 17:08:25 10° NNW 17:14:56 74° ENE 17:21:20 10° SE
ATLAS CENTAUR R/B 3.7 17:11:52 10° NW 17:15:26 30° WSW 17:19:12 10° S
NOSS 2-3 (D) 4.1 17:10:57 10° SW 17:15:30 69° NW 17:20:47 10° NNE
Meteor 1-4 Rocket 3.3 17:13:24 10° NNW 17:17:01 59° W 17:20:32 10° S
ISS -2.1 17:14:44 10° NNW 17:17:04 18° NNE 17:19:24 10° ENE
YAOGAN 1 3.7 17:13:51 10° ESE 17:17:15 23° ENE 17:20:42 10° NNE
CORIOLIS 4.5 17:12:41 10° SE 17:17:46 44° ENE 17:22:52 10° N
Abrixas rocket 2.8 17:14:43 10° WSW 17:17:53 49° NNW 17:21:03 10° NE
ERS-2 3.9 17:18:37 10° E 17:20:11 12° ENE 17:21:46 10° NE
Cosmos 990 Rocket 4.0 17:16:01 10° SSW 17:21:08 78° ESE 17:26:19 10° NNE
BREEZE-M DEB (TANK) 2.9 17:21:12 10° WNW 17:23:22 60° SW 17:28:00 10° SE
CZ-4 R/B 1.9 17:19:56 10° SE 17:23:26 35° ENE 17:27:01 10° N
Delta 2 Rocket 4.4 17:17:58 10° WSW 17:23:33 62° S 17:28:39 10° E
Cosmos 2279 Rocket 4.0 17:19:49 10° S 17:25:59 65° E 17:32:11 10° NNE
Cosmos 2297 Rocket 3.2 17:23:54 10° N 17:28:23 23° NE 17:32:51 10° ESE
Cosmos 1943 Rocket 4.4 17:25:20 10° W 17:29:17 19° NW 17:33:17 10° N
Meteor 1-18 Rocket 4.4 17:24:57 10° SSW 17:30:30 76° W 17:36:09 10° N
USA 116 3.9 17:28:00 10° NNE 17:30:57 33° E 17:33:46 10° SSE
COSMO-SKYMED 1 3.6 17:28:38 10° NE 17:32:16 25° E 17:35:52 10° SSE
Cosmos 2150 Rocket 4.2 17:32:30 10° SSW 17:37:57 83° WNW 17:43:27 10° NNE
Cosmos 1666 3.0 17:34:35 10° N 17:38:10 41° E 17:41:43 10° SSE
PSLV R/B 3.7 17:36:39 10° SW 17:39:41 45° SSE 17:42:02 15° E
Meteor 2-4 Rocket 4.2 17:34:45 10° SSE 17:39:43 37° E 17:44:38 10° NNE
SJ-7 4.5 17:35:47 10° S 17:39:48 82° WSW 17:43:48 10° NNW
Cosmos 1975 Rocket 3.5 17:36:08 10° SSW 17:40:35 69° W 17:45:04 10° N
ATLAS 2AS CENTAUR R/B 3.1 17:34:27 10° SSW 17:42:09 87° ESE 17:50:19 10° NNE
SJ 16-02 2.3 17:41:27 10° SSE 17:45:09 27° E 17:48:01 14° NE
Cosmos 1656 4.4 17:44:19 10° SSE 17:49:15 33° ESE 17:53:14 14° NE
ATLAS 3B R/B 2.8 17:44:58 10° NNW 17:51:23 46° NE 17:57:36 10° ESE
MTI 4.3 17:48:44 13° NNE 17:51:26 39° E 17:54:30 10° S
SPOT 3 Rocket 4.2 17:46:55 10° SE 17:51:28 32° ENE 17:56:02 10° N
Hubble Space Telescope 3.0 17:52:19 10° SW 17:55:17 19° S 17:58:15 10° SE
Cosmos 158 Rocket 4.2 17:51:23 10° N 17:56:12 41° ENE 18:00:53 10° SE
Cosmos 2369 4.0 17:51:31 10° S 17:56:53 46° ESE 18:01:30 14° NE
USA 215 3.8 17:51:11 10° SSE 17:57:37 61° SW 18:04:05 10° NW
Cosmos 2278 4.0 17:53:21 10° S 17:58:41 45° ESE 18:03:06 15° NE
Meteor 1-19 Rocket 4.2 17:55:18 10° S 18:00:56 86° E 18:06:44 10° N
NOSS 3-4 (A) 4.4 17:58:35 10° S 18:03:47 29° ESE 18:06:29 21° ENE
NOSS 3-4 (C) 4.4 17:58:43 10° SSE 18:03:53 28° ESE 18:06:32 21° ENE
Cosmos 1536 Rocket 3.4 18:04:23 10° S 18:08:43 71° E 18:13:04 10° NNE
EO 1 Del DPAF 3.3 18:07:55 18° NNE 18:10:36 55° E 18:14:20 10° S
Meteor 1-28 Rocket 4.4 18:07:31 10° N 18:11:05 42° WNW 18:14:38 10° SW
Cosmos 1025 Rocket 3.9 18:10:38 10° SSE 18:14:01 27° E 18:14:01 27° E
Cosmos 1743 3.7 18:12:33 10° NNW 18:16:19 49° W 18:20:03 10° SSW
MOS 1 4.2 18:12:14 10° SSE 18:17:53 73° ENE 18:23:33 10° N
Ariane Rocket 4.5 18:14:20 10° SSW 18:19:03 39° W 18:23:48 10° NNW
Cosmos 389 Rocket 4.3 18:16:10 10° NNW 18:19:19 33° W 18:22:26 10° SSW
FENGYUN 3A 3.6 18:14:21 10° SSE 18:19:37 58° ENE 18:24:53 10° N
SKYMED 2 3.5 18:16:07 10° NNE 18:20:29 89° WNW 18:24:50 10° SSW
Cosmos 1269 Rocket 4.3 18:17:37 10° N 18:22:43 45° ENE 18:27:45 10° SE
Cosmos 1515 4.2 18:20:24 10° SSE 18:23:25 37° ESE 18:23:25 37° ESE
Cosmos 1697 Rocket 3.0 18:18:48 10° S 18:24:06 44° ESE 18:26:11 31° ENE
BREEZE-M DEB (TANK) 3.2 18:21:32 10° WNW 18:24:40 77° SW 18:35:22 10° SE
NOSS 8 (A) 4.2 18:21:22 10° SW 18:24:44 86° WNW 18:25:26 52° NNE
METEOR-M 4.4 18:22:51 10° S 18:28:09 72° WSW 18:33:31 10° NNW
Cosmos 2266 Rocket 3.9 18:22:26 10° N 18:28:32 85° E 18:34:42 10° S
NOAA 12 4.0 18:23:26 10° SSE 18:28:40 69° ENE 18:33:54 10° N
Cosmos 1125 Rocket 3.5 18:24:23 10° SSW 18:29:42 89° E 18:33:37 19° NNE
Cosmos 2082 3.6 18:25:49 10° NNW 18:31:26 68° ENE 18:37:02 10° SSE
CENTAUR R/B 4.0 18:27:57 10° NNW 18:34:09 25° NE 18:34:48 25° NE
ALOS 2.2 18:34:35 10° SSE 18:39:15 86° WSW 18:43:56 10° NNW
Atlas Centaur 2 3.2 18:36:00 10° WSW 18:39:56 24° SSW 18:41:46 18° SSE
Cosmos 1048 Rocket 3.9 18:35:16 10° NNW 18:40:41 81° ENE 18:46:03 10° SSE
Cosmos 724 4.1 18:35:45 10° NNW 18:41:33 68° ENE 18:45:21 22° SE
Meteor 1-23 Rocket 4.2 18:37:16 10° S 18:43:04 88° WNW 18:48:37 11° N
MINOTAUR IV R/B 4.4 18:38:35 10° NNW 18:43:04 66° ENE 18:43:34 60° ESE
Cosmos 2227 Rocket 2.4 18:39:57 10° NNW 18:45:36 72° WSW 18:51:12 10° SSE
DELTA 2 R/B (1) 3.5 18:40:21 10° W 18:45:57 83° N 18:47:20 53° E
USA 238 DEB 3.9 18:44:33 10° NW 18:51:40 74° WSW 18:58:49 10° SSE
USA 238 3.9 18:44:39 10° NW 18:51:46 75° WSW 18:58:56 10° SSE
ERS-2 3.4 18:50:01 10° S 18:53:28 40° W 18:56:57 10° NNW
ISS -2.3 18:50:36 10° NW 18:52:36 34° WNW 18:52:36 34° WNW
CZ-4 R/B 4.5 18:56:25 10° SW 18:58:37 15° W 19:00:51 10° WNW
Cosmos 1244 Rocket 4.3 18:53:05 10° N 18:59:12 67° E 19:05:19 10° SSE
Cosmos 1980 Rocket 2.5 18:58:10 10° S 19:02:45 49° SE 19:02:45 49° SE
Delta 2 Rocket 4.5 19:00:54 10° W 19:06:01 45° SSW 19:06:37 43° S
Cosmos 2297 Rocket 3.0 19:07:16 10° NNW 19:12:42 50° WSW 19:18:07 10° S
Cosmos 1553 Rocket 4.2 19:12:46 10° S 19:17:51 56° SSE 19:17:51 56° SSE
Cosmos 1417 Rocket 4.3 19:15:37 10° S 19:21:26 80° SE 19:21:26 80° SE
NOSS 3-2 (A) 4.0 19:14:55 10° NW 19:22:35 82° WSW 19:27:40 26° SSE
SJ 16-02 3.4 19:20:06 10° WSW 19:23:41 24° WNW 19:25:04 21° NW
NOSS 3-2 (C) 3.9 19:20:36 10° NNW 19:28:17 85° ENE 19:30:04 59° SE
Hubble Space Telescope 3.6 19:33:36 10° SW 19:34:33 13° SSW 19:34:33 13° SSW
ATLAS 3B R/B 4.1 19:36:05 10° NW 19:41:47 32° WSW 19:47:24 10° S
NOSS 3-4 (A) 4.2 19:48:21 10° SW 19:53:59 48° WNW 19:53:59 48° WNW
NOSS 3-4 (C) 4.2 19:48:26 10° SW 19:54:02 48° WNW 19:54:02 48° WNW
Cosmos 1697 Rocket 4.5 20:03:32 10° WSW 20:07:58 26° WNW 20:07:58 26° WNW
CENTAUR R/B 4.1 20:17:56 10° NNW 20:22:01 35° NNW 20:22:01 35° NNW
